Regional Weather Roundup
Issued by NWS

Home | Current Version | Previous Version | Text Only | Print | Product List | Glossary On
Versions: 1 2 3 4 5 6 7 8 9 10 11 12 13 14 15 16 17 18 19 20 21 22 23 24 25 26
000
ASUS42 KTBW 271717
RWRFL
FLORIDA REGIONAL WEATHER ROUNDUP
NATIONAL WEATHER SERVICE TAMPA BAY RUSKIN FL
100 PM EDT WED JUL 27 2016

NOTE: "FAIR" INDICATES FEW OR NO CLOUDS BELOW 12,000 FEET WITH NO
SIGNIFICANT WEATHER AND/OR OBSTRUCTIONS TO VISIBILITY.

FLZ001>010-012>015-112-114-115-271800-
PANHANDLE FLORIDA

CITY           SKY/WX    TMP DP  RH WIND       PRES   REMARKS
PENSACOLA      PTSUNNY   89  76  65 S16       30.08S HX 100
PENSACOLA NAS  MOSUNNY   91  75  59 S13       30.08R HX 101
MILTON NAS     MOSUNNY   90  74  59 S13G22    30.08S HX  99
CRESTVIEW      PTSUNNY   90  71  53 S7        30.09F HX  96
DUKE FIELD     MOSUNNY   90  73  57 S14       30.08S HX  97
VALPARAISO     MOSUNNY   89  74  60 S12G17    30.09S HX  97
MARY ESTHER    MOSUNNY   90  73  56 S10       30.08S HX  98
PANAMA CITY    FAIR      89  73  59 S13       30.09S HX  97
TYNDALL AFB    SUNNY     89  77  68 S12       30.10S HX 101
APALACHICOLA   SUNNY     89  79  72 S10       30.11S HX 104

STATION/POSITION SKY/WX   TEMP    WIND        PRES    WAVE   SWELL
                          AIR SEA DIR/SP/G            HT/PER HT/PER
                          (F)     (DEG/KT/KT) (MB)    (FT/S) (FT/S)
30.1N   87.6W              85 87  190/ 14/ 16 1018.6F   3/ 6
29.2N   88.2W              85 86  180/ 14/ 16 1018.4F
28.8N   86.0W              85 87  150/ 10/ 12 1019.5F   3/ 7   3/ 7
PANAMA CITY BEAC           86 87  180/ 10/ 11 1019.6R
TOWER C                    85     170/  8/ 10 1020.1F
28.5N   84.5W              86 87  120/  8/ 10 1019.3F   3/ 7   3/ 7

$$
FLZ011-016>038-118-127-128-134-139-239-271800-
NORTH FLORIDA

CITY           SKY/WX    TMP DP  RH WIND       PRES   REMARKS
MARIANNA       SUNNY     91  72  53 SW9       30.08F HX  98
TALLAHASSEE    MOSUNNY   93  71  48 W7        30.10S HX 100
PERRY          MOSUNNY   92  69  47 SW8       30.11S HX  96
LIVE OAK       FAIR      93  73  52 W7        30.12F HX 102
CROSS CITY       N/A     95  71  45 SW8       30.10F HX 102
LAKE CITY      FAIR      90  72  55 CALM      30.11F HX  96
GAINESVILLE    SUNNY     92  69  47 SW3       30.10F HX  97
WILLISTON      FAIR      93  70  46 E3        30.11F HX  99
PALATKA        FAIR      93  72  49 NE3       30.10F HX 100
MAYPORT NAS    PTSUNNY   91  72  53 VRB6      30.09F HX  98
JACKSONVILLE   PTSUNNY   94  69  44 W8        30.08F HX  99
JAX NAS        PTSUNNY   92  65  40 SE7       30.11S
JAX CECIL      MOSUNNY   93  70  46 CALM      30.10S HX  99
FERNANDINA BEA FAIR      93  72  49 SW5       30.08F HX 100
ST AUGUSTINE   SUNNY     90  71  53 E9        30.11F HX  96
PALM COAST     SUNNY     91  75  59 E8        30.10F HX 102

STATION/POSITION SKY/WX   TEMP    WIND        PRES    WAVE   SWELL
                          AIR SEA DIR/SP/G            HT/PER HT/PER
                          (F)     (DEG/KT/KT) (MB)    (FT/S) (FT/S)
SHELL POINT                88     180/  7/  9 1018.7
KEATON BEACH               85     210/  5/  7 1019.1F
CEDAR KEY                  87     210/  4/  5 1019.7F
FERNANDINA                 91 89  270/  3/  5 1019.2S
30.7N   81.3W                 87                N/A     1/ 8
MAYPORT                    86 88   60/  6/ 10 1019.8S
31.4N   80.9W              85 87  210/ 10/ 12 1018.5F   1/ 5   2/ 5
ST AUGUSTINE               84 86   60/  6/  7 1020.2F

$$
FLZ040-043>046-052-053-057-058-063-144-271800-
INTERIOR CENTRAL FLORIDA

CITY           SKY/WX    TMP DP  RH WIND       PRES   REMARKS
OCALA          MOSUNNY   93  68  43 NW5       30.10F HX  97
THE VILLAGES     N/A     91  77  62 MISG      30.00F HX 105
LEESBURG       SUNNY     91  76  61 VRB5      30.11F HX 103
SANFORD        MOSUNNY   91  72  53 S5        30.09F HX  98
ORLANDO EXEC   MOSUNNY   91  73  55 E7        30.10S HX  99
ORLANDO INTL   MOSUNNY   92  70  48 S8        30.10S HX  97
KISSIMMEE      MOSUNNY   91  73  55 VRB7      30.11F HX  99
WINTER HAVEN   SUNNY     92  66  42 SW6       30.11F
LAKELAND       MOSUNNY   91  72  52 SE5       30.11S HX  98
BARTOW         MOSUNNY   90  66  45 E6        30.11F
OKEECHOBEE     SUNNY     88  73  62 CALM      30.09F HX  96

$$
FLZ041-047-054-059-064-141-147-271800-
EAST CENTRAL FLORIDA

CITY           SKY/WX    TMP DP  RH WIND       PRES   REMARKS
ORMOND BEACH   MOSUNNY   90  75  62 E7        30.10F HX 100
DAYTONA BEACH  MOSUNNY   93  75  55 NE9       30.10F HX 104
NEW SMYRNA BEA MOSUNNY   86  75  70 NE8       30.11F HX  95
JFK SPACE CTR  SUNNY     93  68  44 S7        30.09F HX  97
TITUSVILLE     MOSUNNY   91  64  40 E6        30.10F
CAPE CANAVERAL SUNNY     92  71  49 SE9       30.09F HX  98
PATRICK AFB    SUNNY     89  77  67 E12       30.10S HX 101
MELBOURNE      MOSUNNY   92  75  57 E10       30.09F HX 103
VERO BEACH     MOSUNNY   91  75  59 E9        30.10F HX 101
FT PIERCE      SUNNY     89  77  67 E10       30.10S HX 101
STUART         MOSUNNY   91  77  62 SE10      30.11S HX 105

STATION/POSITION SKY/WX   TEMP    WIND        PRES    WAVE   SWELL
                          AIR SEA DIR/SP/G            HT/PER HT/PER
                          (F)     (DEG/KT/KT) (MB)    (FT/S) (FT/S)
28.5N   80.2W              83 86  180/  4/  4 1020.1S
28.9N   78.5W              85 87  220/  6/  8 1019.9R
TRIDENT PIER               87 86  150/  8/ 10 1019.8R
28.4N   80.5W                 84                N/A     1/ 7
27.5N   80.2W                 86                N/A     1/ 8

$$
FLZ050-056-061-142-242-148-248-149-249-151-251-155-255-
160-260-271800-
WEST CENTRAL FLORIDA

CITY           SKY/WX    TMP DP  RH WIND       PRES   REMARKS
CRYSTAL RIVER  FAIR      91  70  49 E6        30.09F HX  97
INVERNESS      FAIR      93  72  49 SE5       30.10F HX 100
BROOKSVILLE    MOSUNNY   92  76  59 VRB5      30.10F HX 104
ZEPHYRHILLS    FAIR      87  70  56 SW3       30.10F
CLEARWATER AIR FAIR      88  73  62 E7        30.09F HX  96
ST PETE CLEARW MOSUNNY   92  71  50 E10       30.09F HX  98
TAMPA INTL     MOSUNNY   89  76  65 VRB5      30.09F HX 100
TAMPA EXEC     PTSUNNY   91  73  55 SE3       30.10F HX 100
PLANT CITY     MOSUNNY   91  75  59 SE3       30.12F HX 102
MACDILL AFB    SUNNY     93  76  56 S7        30.09F HX 105
PETER O KNIGHT SUNNY     95  73  49 S7        30.09F HX 105
ST PETERSBURG  SUNNY     89  73  59 E6        30.08F HX  97
SARASOTA       MOSUNNY   94  70  45 VRB6      30.07F HX 100
VENICE         NOT AVBL

STATION/POSITION SKY/WX   TEMP    WIND        PRES    WAVE   SWELL
                          AIR SEA DIR/SP/G            HT/PER HT/PER
                          (F)     (DEG/KT/KT) (MB)    (FT/S) (FT/S)
27.3N   84.2W                 86                N/A     2/ 6
CLEARWATER BEACH           89 88  140/  4/  5 1019.6R
MIDDLE TAMPA BAY                  150/  6/  8 1019.7R
VENICE                     89 89  190/  6/  8 1017.8F

$$
FLZ066-069-070-075>078-162-262-165-265-271800-
SOUTHWEST FLORIDA AND KEYS

CITY           SKY/WX    TMP DP  RH WIND       PRES   REMARKS
PUNTA GORDA    SUNNY     92  73  53 E8        30.09F HX 100
FT MYERS       MOSUNNY   92  74  55 SE7       30.07S HX 101
SOUTHWEST INTL MOSUNNY   92  74  55 E10       30.07S HX 101
NAPLES         PTSUNNY   91  74  57 E7        30.07S HX 100
MARCO ISLAND   SUNNY     90  70  51 SE10      30.08S HX  95
MARATHON       PTSUNNY   87  78  74 E12G17    30.06F HX 100
KEY WEST NAS   MOSUNNY   86  76  71 E16       30.06F HX  96
KEY WEST INTL  MOSUNNY   87  78  74 E15       30.07S HX 100

STATION/POSITION SKY/WX   TEMP    WIND        PRES    WAVE   SWELL
                          AIR SEA DIR/SP/G            HT/PER HT/PER
                          (F)     (DEG/KT/KT) (MB)    (FT/S) (FT/S)
NAPLES                        87              1018.4R
26.0N   85.6W              84 86   70/ 10/ 12 1018.7F   2/ 7   2/ 7
DRY TORTUGAS               83     110/ 16/ 17 1017.5F
SAND KEY                   83     110/ 15/ 18 1018.4F
LONG KEY                   84 86   50/  5/  8 1018.5F

$$
FLZ067-068-071>074-168-172>174-271800-
SOUTHEAST FLORIDA

CITY           SKY/WX    TMP DP  RH WIND       PRES   REMARKS
W PALM BEACH   MOSUNNY   90  76  63 E13       30.10F HX 101
BOCA RATON     MOSUNNY   88  79  74 SE12      30.09F HX 102
FT LAUDER-EXEC MOSUNNY   90  71  53 E14G23    30.08F HX  96
FT LAUDERDALE  MOSUNNY   89  77  67 SE16      30.08S HX 101
POMPANO BEACH  MOSUNNY   90  77  65 E13       30.08F HX 103
PEMBROKE PINES MOSUNNY   91  75  59 E10G20    30.09S HX 101
OPA LOCKA      MOSUNNY   90  73  57 SE15G22   30.08F HX  98
MIAMI          MOSUNNY   88  74  63 E15       30.08F HX  96
WEST KENDALL   MOSUNNY   91  75  59 E13       30.07F HX 101
HOMESTEAD      MOSUNNY   89  76  66 E15       30.07F HX 100

STATION/POSITION SKY/WX   TEMP    WIND        PRES    WAVE   SWELL
                          AIR SEA DIR/SP/G            HT/PER HT/PER
                          (F)     (DEG/KT/KT) (MB)    (FT/S) (FT/S)
PORT EVERGLADES            88      80/  7/  9 1019.0F
VIRGINIA KEY               85 88   90/  9/ 11 1019.3F
LAKE WORTH                        120/  6/  7   N/A
FOWEY ROCKS                84 84   80/  9/ 10 1019.2F
SETTLEMENT POINT           87     160/ 11/ 13 1019.9F

$$





USA.gov is the U.S. government's official web portal to all federal, state and local government web resources and services.